EW5975 Weather Reports


Display with metric or nautical units.
time (UTC)temp
F
wind
direction
speed
MPH
gust
MPH
rain 1hr
in
rain 24hr
in
rain mn
in
humidity
%
barometer
mb
20260905182017 78 0.0 0.0 0.00 0.00 0.00 79
20260905181037 78 0.0 0.0 0.00 0.00 0.00 78
20260905180037 79 0.0 0.0 0.00 0.00 0.00 78
20260905175017 79 0.0 0.0 0.00 0.00 0.00 77
20260905174017 80 0.0 0.0 0.00 0.00 0.00 76
20260905173017 80 0.0 0.0 0.00 0.00 0.00 76
20260905172017 81 0.0 0.0 0.00 0.00 0.00 74
20260905171017 81 0.0 0.0 0.00 0.00 0.00 73
20260905170017 82 0.0 1.0 0.00 0.00 0.00 72
20260905165017 83 225 1.0 3.0 0.00 0.00 0.00 71
20260905164017 83 0.0 1.0 0.00 0.00 0.00 70
20260905163017 84 0.0 2.0 0.00 0.00 0.00 69
20260905162037 85 0.0 2.0 0.00 0.00 0.00 68
20260905161017 85 180 1.0 5.0 0.00 0.00 0.00 68
20260905160018 85 248 1.0 3.0 0.00 0.00 0.00 68
20260905155017 84 248 1.0 4.0 0.00 0.00 0.00 69
20260905154018 84 180 2.0 5.0 0.00 0.00 0.00 69
20260905153037 84 158 2.0 6.0 0.00 0.00 0.00 70
20260905152017 83 248 1.0 3.0 0.00 0.00 0.00 71
20260905151017 82 0.0 2.0 0.00 0.00 0.00 72
20260905150017 83 135 2.0 4.0 0.00 0.00 0.00 71
20260905145018 83 180 1.0 5.0 0.00 0.00 0.00 71
20260905144056 83 225 1.0 3.0 0.00 0.00 0.00 70
20260905143016 83 135 1.0 3.0 0.00 0.00 0.00 69
20260905142017 84 248 2.0 4.0 0.00 0.00 0.00 69
20260905141017 84 158 1.0 4.0 0.00 0.00 0.00 68
20260905140017 84 158 2.0 7.0 0.00 0.00 0.00 69
20260905135016 84 135 2.0 5.0 0.00 0.00 0.00 69
20260905134016 83 248 2.0 4.0 0.00 0.00 0.00 70
20260905133017 83 158 1.0 3.0 0.00 0.00 0.00 70
20260905132057 83 158 1.0 3.0 0.00 0.00 0.00 71
20260905131016 82 225 1.0 4.0 0.00 0.00 0.00 71
20260905130016 82 180 1.0 3.0 0.00 0.00 0.00 71
20260905125016 82 135 2.0 5.0 0.00 0.00 0.00 70
20260905124016 83 248 2.0 7.0 0.00 0.00 0.00 69
20260905123018 83 225 1.0 3.0 0.00 0.00 0.00 68
20260905122016 83 180 3.0 6.0 0.00 0.00 0.00 68
20260905121017 83 158 1.0 3.0 0.00 0.00 0.00 69
20260905120016 83 248 2.0 5.0 0.00 0.00 0.00 68
20260905115016 84 158 1.0 5.0 0.00 0.00 0.00 68
20260905114016 84 180 2.0 4.0 0.00 0.00 0.00 68
20260905113016 84 158 2.0 5.0 0.00 0.00 0.00 69
20260905112016 84 248 1.0 4.0 0.00 0.00 0.00 69
20260905111036 84 135 1.0 5.0 0.00 0.00 0.00 69
20260905110016 84 158 2.0 6.0 0.00 0.00 0.00 68
20260905105016 85 135 3.0 6.0 0.00 0.00 0.00 67
20260905104016 85 135 2.0 5.0 0.00 0.00 0.00 67
20260905103016 84 248 1.0 3.0 0.00 0.00 0.00 66
20260905102016 84 135 1.0 4.0 0.00 0.00 0.00 67
20260905101016 84 225 1.0 2.0 0.00 0.00 0.00 66
20260905100016 84 135 1.0 4.0 0.00 0.00 0.00 67
20260905095016 82 158 1.0 5.0 0.00 0.00 0.00 70
20260905094016 81 135 1.0 6.0 0.00 0.00 0.00 70
20260905093016 82 135 1.0 4.0 0.00 0.00 0.00 70
20260905092036 81 135 2.0 5.0 0.00 0.00 0.00 70
20260905091016 81 180 1.0 2.0 0.00 0.00 0.00 70
20260905090036 81 180 2.0 7.0 0.00 0.00 0.00 72
20260905085016 81 158 1.0 3.0 0.00 0.00 0.00 72
20260905084016 81 158 1.0 2.0 0.00 0.00 0.00 71
20260905083016 81 135 2.0 4.0 0.00 0.00 0.00 71
20260905082015 80 158 1.0 3.0 0.00 0.00 0.00 72
20260905081015 79 158 1.0 3.0 0.00 0.00 0.00 73
20260905080055 78 0.0 0.0 0.00 0.00 0.00 70
20260905075515 78 0.0 0.0 0.00 0.00 0.00 69
20260905074515 77 0.0 1.0 0.00 0.00 0.00 72
20260905073535 76 0.0 1.0 0.00 0.00 0.00 73
20260905072516 76 0.0 2.0 0.00 0.00 0.00 74
20260905071516 74 158 1.0 2.0 0.00 0.00 0.00 80
20260905070536 72 0.0 1.0 0.00 0.00 0.00 83
20260905065517 71 0.0 1.0 0.00 0.00 0.00 84
20260905064515 70 158 1.0 2.0 0.00 0.00 0.00 86
20260905063517 70 0.0 0.0 0.00 0.00 0.00 88 1017.2
20260905062517 69 0.0 1.0 0.00 0.00 0.00 89 1017.2
20260905061537 68 0.0 1.0 0.00 0.00 0.00 89 1017.2
20260905060637 0 0.0 0.0 0.00 0.00 0.00
20260905055517 0 0.0 0.0 0.00 0.00 0.00
20260905054517 0 0.0 0.0 0.00 0.00 0.00
20260905053517 0 0.0 0.0 0.00 0.00 0.00
20260905053019 0 0.0 0.0 0.00 0.00 0.00
20260905052017 0 0.0 0.0 0.00 0.00 0.00
20260905051540 0 0.0 0.0 0.00 0.00 0.00
20260905051017 0 0.0 0.0 0.00 0.00 0.00
20260905050000 0 0.0 0.0 0.00 0.00 0.00
20260905045517 0 0.0 0.0 0.00 0.00 0.00
20260905044517 0 0.0 0.0 0.00 0.00 0.00
20260905044137 0 0.0 0.0 0.00 0.00 0.00
20260905043537 0 0.0 0.0 0.00 0.00 0.00
20260905042517 0 0.0 0.0 0.00 0.00 0.00
20260905042017 0 0.0 0.0 0.00 0.00 0.00
20260905041017 0 0.0 0.0 0.00 0.00 0.00
20260905040517 0 0.0 0.0 0.00 0.00 0.00
20260905035517 0 0.0 0.0 0.00 0.00 0.00
20260905035041 0 0.0 0.0 0.00 0.00 0.00
20260905034517 0 0.0 0.0 0.00 0.00 0.00
20260905033517 0 0.0 0.0 0.00 0.00 0.00
20260905033017 0 0.0 0.0 0.00 0.00 0.00
20260905032017 0 0.0 0.0 0.00 0.00 0.00
20260905031638 0 0.0 0.0 0.00 0.00 0.00
20260905031037 0 0.0 0.0 0.00 0.00 0.00
20260905030017 0 0.0 0.0 0.00 0.00 0.00
20260905025517 0 0.0 0.0 0.00 0.00 0.00
20260905024557 0 0.0 0.0 0.00 0.00 0.00
20260905024017 0 0.0 0.0 0.00 0.00 0.00
20260905023017 0 0.0 0.0 0.00 0.00 0.00
20260905022540 0 0.0 0.0 0.00 0.00 0.00
20260905022016 0 0.0 0.0 0.00 0.00 0.00
20260905021018 0 0.0 0.0 0.00 0.00 0.00
20260905020016 0 0.0 0.0 0.00 0.00 0.00
20260905015135 0 0.0 0.0 0.00 0.00 0.00
20260905014517 0 0.0 0.0 0.00 0.00 0.00
20260905013600 0 0.0 0.0 0.00 0.00 0.00
20260905013016 0 0.0 0.0 0.00 0.00 0.00
20260905012016 0 0.0 0.0 0.00 0.00 0.00
20260905011017 0 0.0 0.0 0.00 0.00 0.00
20260905010044 0 0.0 0.0 0.00 0.00 0.00
20260905005516 0 0.0 0.0 0.00 0.00 0.00
20260905004517 0 0.0 0.0 0.00 0.00 0.00
20260905004016 0 0.0 0.0 0.00 0.00 0.00
20260905003016 0 0.0 0.0 0.00 0.00 0.00
20260905002658 0 0.0 0.0 0.00 0.00 0.00
20260905002037 0 0.0 0.0 0.00 0.00 0.00
20260905001018 0 0.0 0.0 0.00 0.00 0.00
20260905000516 0 0.0 0.0 0.00 0.00 0.00
20260904235537 0 0.0 0.0 0.00 0.00 0.00
20260904235016 0 0.0 0.0 0.00 0.00 0.00
20260904234016 0 0.0 0.0 0.00 0.00 0.00
20260904233538 0 0.0 0.0 0.00 0.00 0.00
20260904233036 0 0.0 0.0 0.00 0.00 0.00
20260904232018 0 0.0 0.0 0.00 0.00 0.00
20260904231516 0 0.0 0.0 0.00 0.00 0.00
20260904230517 0 0.0 0.0 0.00 0.00 0.00
20260904230135 0 0.0 0.0 0.00 0.00 0.00
20260904225516 0 0.0 0.0 0.00 0.00 0.00
20260904224618 0 0.0 0.0 0.00 0.00 0.00
20260904224016 0 0.0 0.0 0.00 0.00 0.00
20260904223016 0 0.0 0.0 0.00 0.00 0.00
20260904222516 0 0.0 0.0 0.00 0.00 0.00
20260904221516 0 0.0 0.0 0.00 0.00 0.00
20260904221034 0 0.0 0.0 0.00 0.00 0.00
20260904220516 0 0.0 0.0 0.00 0.00 0.00
20260904215505 0 0.0 0.0 0.00 0.00 0.00
20260904215017 0 0.0 0.0 0.00 0.00 0.00
20260904214038 0 0.0 0.0 0.00 0.00 0.00
20260904213016 0 0.0 0.0 0.00 0.00 0.00
20260904212054 0 0.0 0.0 0.00 0.00 0.00
20260904211516 0 0.0 0.0 0.00 0.00 0.00
20260904210516 0 0.0 0.0 0.00 0.00 0.00
20260904205516 0 0.0 0.0 0.00 0.00 0.00
20260904204604 0 0.0 0.0 0.00 0.00 0.00
20260904204016 0 0.0 0.0 0.00 0.00 0.00
20260904203017 0 0.0 0.0 0.00 0.00 0.00
20260904202517 0 0.0 0.0 0.00 0.00 0.00
20260904201517 0 0.0 0.0 0.00 0.00 0.00
20260904200516 0 0.0 0.0 0.00 0.00 0.00
20260904195515 0 0.0 0.0 0.00 0.00 0.00
20260904195016 0 0.0 0.0 0.00 0.00 0.00
20260904194016 0 0.0 0.0 0.00 0.00 0.00
20260904193516 0 0.0 0.0 0.00 0.00 0.00
20260904192516 0 0.0 0.0 0.00 0.00 0.00
20260904192105 0 0.0 0.0 0.00 0.00 0.00
20260904191516 0 0.0 0.0 0.00 0.00 0.00
20260904190535 0 0.0 0.0 0.00 0.00 0.00
20260904190015 0 0.0 0.0 0.00 0.00 0.00
20260904185015 0 0.0 0.0 0.00 0.00 0.00
20260904184015 0 0.0 0.0 0.00 0.00 0.00
20260904183100 0 0.0 0.0 0.00 0.00 0.00